Simultaneous Nadir Overpasses (SNOs) Predictions

Prediction of SNOs over PacNW region [( 10.00, 139.50) to ( 22.70, 165.60)] between AQUA and NPP Satellites:

Table of predicted SNOs over PacNW region for the next 30.0 days since TLE Epoch: 8/30/2014
Index Date (AQUA) Time (AQUA) AQUA Lat,Lon Date (NPP) Time (NPP) NPP Lat,Lon Distance(km) Time Diff (sec)
1 08/31/2014 02:39:02 10.10, 162.68 08/31/2014 02:41:05 9.83, 161.48 135.23 123
2 09/02/2014 16:19:37 17.17, 141.54 09/02/2014 16:18:06 17.19, 141.48 6.12 91
3 09/08/2014 03:28:31 10.11, 150.30 09/08/2014 03:31:59 9.54, 148.84 172.58 208
4 09/10/2014 15:32:10 10.02, 152.31 09/10/2014 15:29:37 10.00, 152.47 18.36 153
5 09/16/2014 02:39:04 10.12, 162.66 09/16/2014 02:41:33 9.82, 161.44 137.33 149
6 09/18/2014 16:19:07 18.88, 141.92 09/18/2014 16:18:04 18.86, 141.85 7.21 63
7 09/24/2014
